Tenerife, Spain

7:49 PM WET on November 19, 2017 (GMT +0000)
Tenerife

Weather History for GCXO - November, 2017

Change the Weather History Date:

Tuesday, November 14, 2017

  Actual Average Record
Temperature  
Mean Temperature 62 °F -  
Max Temperature 69 °F 62 °F 77 °F (1998)
Min Temperature 55 °F 54 °F 51 °F (1996)
Degree Days  
Heating Degree Days 3    
Growing Degree Days 12 (Base 50)    
Moisture  
Dew Point 55 °F    
Average Humidity 81    
Maximum Humidity 94    
Minimum Humidity 60    
Precipitation  
Precipitation 0.00 in - - ()
Sea Level Pressure  
Sea Level Pressure 30.11 in    
Wind  
Wind Speed 10 mph ()    
Max Wind Speed 20 mph    
Max Gust Speed -    
Visibility 7.2 miles    
Events      
Averages and records for this station are not official NWS values.
T = Trace of Precipitation, MM = Missing Value Source: Averaged Metar Reports

Daily Weather History Graph

Daily Weather History Graph

Search for Another Location

Airport or City:

Trip Planner

Search our weather history database for the weather conditions in past years. The results will help you decide how hot, cold, wet, or windy it might be!

Date:

Astronomy

Nov. 14, 2017 Rise Set
Actual Time 7:26 AM WET 6:12 PM WET
Civil Twilight 7:02 AM WET 6:37 PM WET
Nautical Twilight 6:33 AM WET 7:05 PM WET
Astronomical Twilight 6:05 AM WET 7:33 PM WET
Moon 3:40 AM WET (11/14) 4:07 PM WET (11/14)
Length of Visible Light 11h 35m
Length of Day
10h 45m
Waning Crescent, 15% of the Moon is Illuminated
Nov 14
Waning Crescent
Nov 18
New
Nov 26
First Quarter
Dec 3
Full
Dec 10
Last Quarter

Hourly Weather History & Observations

Time (WET) Temp. Dew Point Humidity Pressure Visibility Wind Dir Wind Speed Gust Speed Precip Events Conditions
12:00 AM 60 °F 58 °F 91% 30.14 in 8 mi WNW 13.8 mph - -  
12:00 AM 60.8 °F 59.0 °F 94% 30.18 in 6.2 mi WNW 12.7 mph - N/A   Mostly Cloudy
12:30 AM 59.0 °F 57.2 °F 94% 30.15 in 6.2 mi NW 13.8 mph - N/A   Overcast
1:30 AM 59.0 °F 57.2 °F 94% 30.12 in 6.2 mi WNW 19.6 mph - N/A   Partly Cloudy
2:00 AM 59.0 °F 55.4 °F 88% 30.12 in 6.2 mi WNW 18.4 mph - N/A   Partly Cloudy
2:30 AM 59.0 °F 57.2 °F 94% 30.12 in 6.2 mi NW 17.3 mph - N/A   Mostly Cloudy
3:00 AM 59 °F 56 °F 88% 30.10 in 12 mi WNW 17.3 mph - -  
3:00 AM 59.0 °F 57.2 °F 94% 30.12 in 6.2 mi WNW 17.3 mph - N/A   Mostly Cloudy
3:30 AM 59.0 °F 55.4 °F 88% 30.12 in 6.2 mi NW 10.4 mph - N/A   Scattered Clouds
4:00 AM 59.0 °F 55.4 °F 88% 30.12 in 6.2 mi WNW 15.0 mph - N/A   Partly Cloudy
4:30 AM 59.0 °F 57.2 °F 94% 30.12 in 6.2 mi WNW 12.7 mph - N/A   Overcast
5:00 AM 59.0 °F 55.4 °F 88% 30.12 in 6.2 mi WNW 11.5 mph - N/A   Mostly Cloudy
5:30 AM 57.2 °F 55.4 °F 94% 30.12 in 6.2 mi WNW 10.4 mph - N/A   Partly Cloudy
6:00 AM 59 °F 56 °F 85% 30.10 in 12 mi WNW 11.5 mph - -   Mostly Cloudy
6:00 AM 59.0 °F 57.2 °F 94% 30.12 in 6.2 mi WNW 10.4 mph - N/A   Mostly Cloudy
6:30 AM 59.0 °F 55.4 °F 88% 30.12 in 6.2 mi West 11.5 mph - N/A   Scattered Clouds
7:00 AM 59.0 °F 55.4 °F 88% 30.12 in 6.2 mi WNW 9.2 mph - N/A   Scattered Clouds
7:30 AM 57.2 °F 53.6 °F 88% 30.12 in 6.2 mi NW 9.2 mph - N/A   Scattered Clouds
8:00 AM 59.0 °F 53.6 °F 82% 30.15 in 6.2 mi WNW 5.8 mph - N/A   Scattered Clouds
8:30 AM 59.0 °F 55.4 °F 88% 30.15 in 6.2 mi WNW 8.1 mph - N/A   Partly Cloudy
9:00 AM 60 °F 55 °F 78% 30.12 in 16 mi West 10.4 mph - -   Scattered Clouds
9:00 AM 60.8 °F 55.4 °F 82% 30.15 in 6.2 mi West 9.2 mph - N/A   Partly Cloudy
9:30 AM 60.8 °F 53.6 °F 77% 30.15 in 6.2 mi West 12.7 mph - N/A   Partly Cloudy
10:00 AM 64.4 °F 51.8 °F 64% 30.15 in 6.2 mi WNW 5.8 mph - N/A   Partly Cloudy
10:30 AM 64.4 °F 53.6 °F 68% 30.15 in 6.2 mi West 6.9 mph - N/A   Partly Cloudy
11:00 AM 68.0 °F 53.6 °F 60% 30.15 in 6.2 mi Variable 1.2 mph - N/A   Partly Cloudy
11:30 AM 66.2 °F 53.6 °F 64% 30.15 in 6.2 mi ESE 4.6 mph - N/A   Partly Cloudy
12:00 PM 64.4 °F 53.6 °F 68% 30.12 in 6.2 mi ESE 10.4 mph - N/A   Partly Cloudy
12:30 PM 66.2 °F 55.4 °F 68% 30.12 in 6.2 mi ESE 8.1 mph - N/A   Partly Cloudy
1:00 PM 66.2 °F 55.4 °F 68% 30.12 in 6.2 mi ESE 10.4 mph - N/A   Partly Cloudy
1:30 PM 64.4 °F 53.6 °F 68% 30.09 in 6.2 mi ESE 6.9 mph - N/A   Partly Cloudy
2:00 PM 66.2 °F 57.2 °F 73% 30.09 in 6.2 mi ESE 5.8 mph - N/A   Partly Cloudy
2:30 PM 66.2 °F 55.4 °F 68% 30.09 in 6.2 mi Variable 4.6 mph - N/A   Partly Cloudy
3:00 PM 67 °F 56 °F 60% 30.02 in 19 mi WNW 13.8 mph - -   Scattered Clouds
3:00 PM 69.8 °F 59.0 °F 68% 30.09 in 6.2 mi WNW 12.7 mph - N/A   Partly Cloudy
3:30 PM 64.4 °F 55.4 °F 73% 30.06 in 6.2 mi WNW 12.7 mph - N/A   Partly Cloudy
5:30 PM 62.6 °F 53.6 °F 72% 30.06 in 6.2 mi WNW 11.5 mph - N/A   Partly Cloudy
6:00 PM 61 °F 54 °F 73% 30.05 in 19 mi West 10.4 mph - -   Scattered Clouds
6:00 PM 60.8 °F 55.4 °F 82% 30.09 in 6.2 mi WNW 11.5 mph - N/A   Partly Cloudy
6:30 PM 60.8 °F 53.6 °F 77% 30.09 in 6.2 mi WNW 9.2 mph - N/A   Partly Cloudy
7:00 PM 59.0 °F 53.6 °F 82% 30.09 in 6.2 mi WNW 8.1 mph - N/A   Partly Cloudy
7:30 PM 59.0 °F 55.4 °F 88% 30.09 in 6.2 mi WNW 9.2 mph - N/A   Partly Cloudy
8:00 PM 59.0 °F 55.4 °F 88% 30.09 in 6.2 mi WNW 10.4 mph - N/A   Partly Cloudy
8:30 PM 57.2 °F 53.6 °F 88% 30.09 in 6.2 mi West 5.8 mph - N/A   Partly Cloudy
9:00 PM 59.0 °F 53.6 °F 82% 30.09 in 6.2 mi West 3.5 mph - N/A   Partly Cloudy
9:30 PM 57.2 °F 51.8 °F 82% 30.12 in 6.2 mi Calm Calm - N/A   Partly Cloudy
10:00 PM 57.2 °F 51.8 °F 82% 30.12 in 6.2 mi SW 1.2 mph - N/A   Partly Cloudy
10:30 PM 55.4 °F 48.2 °F 77% 30.12 in 6.2 mi South 1.2 mph - N/A   Partly Cloudy
11:00 PM 55.4 °F 50.0 °F 82% 30.12 in 6.2 mi West 8.1 mph - N/A   Partly Cloudy
11:30 PM 55.4 °F 51.8 °F 88% 30.12 in 6.2 mi West 9.2 mph - N/A   Unknown